Regional Weather Roundup
Issued by NWS

Home | Current Version | Previous Version | Text Only | Print | Product List | Glossary Off
Versions: 1 2 3 4 5 6 7 8 9 10 11 12 13 14 15 16 17 18 19 20 21 22 23 24 25 26 27 28 29 30 31 32 33 34 35 36 37 38 39 40 41 42 43 44 45 46 47 48 49 50

000
ASUS43 KMKX 210000
RWRWI

WISCONSIN REGIONAL WEATHER ROUNDUP
NATIONAL WEATHER SERVICE MILWAUKEE/SULLIVAN WI
700 PM CDT FRI OCT 20 2017

NOTE: "FAIR" INDICATES FEW OR NO CLOUDS BELOW 12,000 FEET WITH NO
SIGNIFICANT WEATHER AND/OR OBSTRUCTIONS TO VISIBILITY.

WIZ001-002-006>008-014>016-023>028-210100-
NORTHWEST WISCONSIN

CITY           SKY/WX    TMP DP  RH WIND       PRES   REMARKS
SUPERIOR ARPT  CLOUDY    54  51  89 N3        29.71S
ASHLAND        CLOUDY    71  41  33 S10G21    29.76S
6HR MIN TEMP:  71; 6HR MAX TEMP:  78;

HAYWARD        PTCLDY    69  44  40 S12       29.78S
6HR MIN TEMP:  68; 6HR MAX TEMP:  76;

SIREN          CLOUDY    71  40  32 S14G21    29.74F
CUMBERLAND     PTCLDY    66  37  34 S10       29.78S
RICE LAKE      PTCLDY    68  42  38 SE12      29.79F
CHETEK         PTCLDY    67  48  50 SE12      29.80S
LADYSMITH      PTCLDY    69  41  36 SE8       29.85S
EAU CLAIRE     NOT AVBL
MENOMONIE      PTCLDY    70  38  30 SE12G23   29.80S
NEW RICHMOND   CLOUDY    68  37  32 S13       29.77R
OSCEOLA        PTCLDY    69  42  37 SE12G17   29.76F
$$

WIZ003>005-009-010-017-018-210100-
NORTH CENTRAL WISCONSIN

CITY           SKY/WX    TMP DP  RH WIND       PRES   REMARKS
MANITOWISH WTR CLOUDY    64  46  50 S9        29.86S
ARBOR VITAE    CLOUDY    67  46  47 S10       29.88S
WOODRUFF       CLOUDY    67  46  47 S10       29.88S
RHINELANDER    PTCLDY    66  43  43 S8        29.91S
6HR MIN TEMP:  66; 6HR MAX TEMP:  75;

EAGLE RIVER    CLOUDY    66  38  36 S6        29.90R
LAND O LAKES   CLOUDY    67  40  37 S8        29.90S
PHILLIPS       CLOUDY    68  41  37 S12       29.85S
TOMAHAWK       CLOUDY    62  45  53 CALM      29.90S
MEDFORD        PTCLDY    62  42  49 S8        29.89S
MERRILL        CLOUDY    68  42  39 S5        29.91S
$$

WIZ029-030-035-036-043>047-210100-
CENTRAL WISCONSIN

CITY           SKY/WX    TMP DP  RH WIND       PRES   REMARKS
WAUSAU         CLOUDY    66  43  43 S9        29.90S
6HR MIN TEMP:  66; 6HR MAX TEMP:  74;

MOSINEE        MOCLDY    64  43  45 SE9       29.92F
MARSHFIELD     CLEAR     65  43  44 S10       29.89F
6HR MIN TEMP:  64; 6HR MAX TEMP:  76;

STEVENS POINT  PTCLDY    66  44  44 S7        29.93F
WAUPACA        PTCLDY    65  43  45 SE3       29.95S
WAUTOMA        PTCLDY    66  46  48 SE5       29.95S
6HR MIN TEMP:  66; 6HR MAX TEMP:  77;

WISC RAPIDS    CLOUDY    66  45  46 SE5       29.93S
6HR MIN TEMP:  66; 6HR MAX TEMP:  77;

CAMP DOUGLAS   NOT AVBL
$$

WIZ011>013-019>022-031-037>040-048>050-210100-
NORTHEAST WISCONSIN

CITY           SKY/WX    TMP DP  RH WIND       PRES   REMARKS
ANTIGO         CLOUDY    60  46  60 S9        29.94S
SHAWANO        MOCLDY    70  46  42 S3        29.94S
OCONTO         MOCLDY    64  53  67 S6        29.95R
STURGEON BAY   PTCLDY    60  53  77 S15       29.98R
6HR MIN TEMP:  59; 6HR MAX TEMP:  74;

GREEN BAY      CLOUDY    65  49  56 S5        29.96S
6HR MIN TEMP:  63; 6HR MAX TEMP:  74;

MANITOWOC      CLOUDY    59  52  77 SE7       29.99S
6HR MIN TEMP:  59; 6HR MAX TEMP:  70;

APPLETON       MOCLDY    64  43  45 S7        29.95F
CLINTONVILLE   NOT AVBL
OSHKOSH        CLOUDY    60  47  61 S6        29.96S
6HR MIN TEMP:  59; 6HR MAX TEMP:  76;

$$

WIZ032>034-041-042-053>061-210100-
SOUTHWEST WISCONSIN

CITY           SKY/WX    TMP DP  RH WIND       PRES   REMARKS
LA CROSSE      CLOUDY    71  47  42 S12       29.85F
6HR MIN TEMP:  71; 6HR MAX TEMP:  78;

SPARTA         CLOUDY    69  48  47 SE9G17    29.89F
VIROQUA        CLOUDY    66  48  51 SE9       29.90F
BOSCOBEL       PTCLDY    71  47  42 VRB3      29.91F
6HR MIN TEMP:  71; 6HR MAX TEMP:  78;

PRAIRIE DU CHI CLOUDY    71  40  32 SE7       29.89S
PLATTEVILLE    CLOUDY    66  49  54 SE10      29.95S
$$

WIZ056-057-062-063-064-067-068-210100-
SOUTH CENTRAL WISCONSIN

CITY           SKY/WX    TMP DP  RH WIND       PRES   REMARKS
REEDSBURG      CLOUDY    68  45  44 S5        29.93F
BARABOO/DELLS  CLOUDY    64  44  48 S5        29.95S
LONE ROCK      CLOUDY    62  48  60 E7        29.93F
6HR MIN TEMP:  60; 6HR MAX TEMP:  76;

MINERAL POINT  CLEAR     64  48  55 SE8       29.95F
MADISON        CLOUDY    68  48  48 S12       29.97R
6HR MIN TEMP:  68; 6HR MAX TEMP:  76;

MIDDLETON      CLOUDY    69  47  46 S7        29.97S
WATERTOWN      CLOUDY    66  49  52 SE6       29.99S
MONROE         CLOUDY    68  45  42 S16       29.98S
JANESVILLE     MOCLDY    70  48  46 S13       29.99S
$$

WIZ051-052-058>065-066-070>072-210100-
SOUTHEAST WISCONSIN

CITY           SKY/WX    TMP DP  RH WIND       PRES   REMARKS
MILWAUKEE      MOCLDY    68  53  58 S8        30.02S
6HR MIN TEMP:  66; 6HR MAX TEMP:  80;

WAUKESHA       CLEAR     70  46  43 S12       30.03R
MILWAUKEE/TIMM CLEAR     70  46  43 S8        30.02S
RACINE         CLOUDY    64  54  69 S6        30.04S
6HR MIN TEMP:  63; 6HR MAX TEMP:  77;

BURLINGTON     PTCLDY    65  51  59 S5        30.02S
KENOSHA        CLOUDY    67  50  54 S7        30.03S
6HR MIN TEMP:  66; 6HR MAX TEMP:  78;

FOND DU LAC    CLOUDY    65  46  50 S9        29.97S
6HR MIN TEMP:  64; 6HR MAX TEMP:  78;

SHEBOYGAN      CLOUDY    58  53  84 S9        30.00R
6HR MIN TEMP:  58; 6HR MAX TEMP:  78;

WEST BEND      CLOUDY    68  46  45 S6        30.00S
JUNEAU         CLOUDY    66  47  50 SE9       30.00R
$$

LSZ147-162-210100-
LAKE SUPERIOR

STATION/POSITION TIME  TEMP    WIND        PRES    WAVE
                       AIR SEA DIR/SP/G            HT/PER
                 (UTC) (F)     (DEG/KT/KT) (MB)    (FT/S)
W MID LAKE BUOY  2250   56 53              1007.8F   1
DEVILS ISLAND    2300   72     180/  7/  9 1006.9F
PORT WING        2240          190/ 12/ 20 1007.1S
SAXON HARBOR     2340   73     190/  4/  8 1007.5S
$$

LMZ867-665-643>646-210100-
LAKE MICHIGAN

STATION/POSITION TIME  TEMP    WIND        PRES    WAVE
                       AIR SEA DIR/SP/G            HT/PER
                 (UTC) (F)     (DEG/KT/KT) (MB)    (FT/S)
S GREEN BAY BUOY 2300   63 58  160/  8/  8 1014.2F
N MID LAKE BUOY  2250   60 58  190/ 19/ 23 1014.9F   5/ 6
NORTHPORT PIER   2340   59     160/  6/ 15 1014.6S
KEWAUNEE LAKESHO 2330   56     180/ 14/ 16 1014.6R
SHEBOYGAN LAKESH 2300   58     180/ 14/ 14 1015.7S
PORT WASHINGTON  2330   57     190/  6/ 11 1016.9S
ATWATER BUOY     2209   59 53  160/ 14/ 17 1016.3F
MILWAUKEE LAKESH 2330   58     150/ 11/ 11   N/A
S MID LAKE BUOY  2250   65 61  150/ 14/ 14 1017.6F   2/ 4
KENOSHA   LAKESH 2300   61     180/ 11/ 13 1016.6
$$

TC  - TEMPERATURE IN CELSIUS
VSB - VISIBILITY IN STATUTE MILES
WCI - WIND CHILL INDEX
HX  - HEAT INDEX





USA.gov is the U.S. government's official web portal to all federal, state and local government web resources and services.